Theta_e
347 347 346 345 345 344 344 346 348 348 348 348 349 351 352 352 351 351 350 349 349 350 347 343 343 345 346 346 347 348 349 347 347 348 347 346 347 349 352 352 348 347 348 346 347 350 351 351 351 351 350 349 348 347 346 347 348 347 347 346 346 346 347 348 347 346 345 345 345 345 346 348 350 351 351 352 351 346 343 345 343 342 344 344 344
345 347 347 346 347 346 345 346 347 348 349 349 348 350 351 351 351 352 351 349 349 350 350 347 344 345 346 347 347 348 349 348 347 347 347 346 346 348 351 352 348 346 349 349 349 351 351 351 350 350 350 349 348 347 346 346 347 346 346 347 346 345 346 347 347 346 346 346 345 345 345 346 348 351 350 350 351 348 345 346 346 344 344 345 347
342 346 347 346 346 347 346 347 347 348 349 348 347 348 350 351 351 351 351 350 349 349 350 349 346 345 346 346 347 348 349 349 347 347 347 347 347 347 348 350 348 346 349 351 350 350 351 351 350 349 349 349 349 347 346 346 346 347 347 346 346 344 345 347 348 348 346 346 346 345 345 345 346 349 350 348 348 346 345 347 348 347 345 345 348
342 345 347 347 347 346 346 346 347 347 348 348 347 347 348 349 350 350 350 350 349 348 350 351 348 347 346 347 347 347 348 350 349 348 346 346 347 347 347 349 349 349 349 350 350 350 350 350 349 348 348 349 350 349 347 348 348 348 347 346 346 345 345 347 349 350 348 347 347 346 346 346 345 345 346 347 346 345 344 346 349 348 346 344 345
345 345 347 348 348 347 346 346 346 347 347 347 347 347 347 348 349 350 350 350 349 349 349 350 350 348 347 347 347 346 347 349 350 349 346 346 346 347 347 348 350 351 350 350 350 350 350 350 349 348 348 349 350 349 348 349 349 348 348 347 347 347 347 348 348 350 350 349 348 348 347 347 346 345 344 343 345 348 345 344 346 348 347 346 345
347 347 347 347 347 347 347 347 347 347 347 347 347 347 347 348 348 348 349 349 349 349 348 348 349 350 348 347 347 347 347 348 349 349 347 346 346 346 346 347 349 350 350 350 350 350 350 350 349 348 348 349 350 350 349 349 349 348 348 348 348 348 348 349 349 349 349 348 347 347 347 346 346 346 346 343 345 349 349 347 346 345 345 346 347
347 346 347 347 346 345 345 346 347 347 347 347 347 347 347 348 348 347 348 348 348 349 349 348 349 351 350 347 346 347 348 348 349 349 347 346 346 345 345 346 347 349 350 350 350 350 350 350 350 350 349 349 349 348 348 349 349 348 348 349 349 348 347 347 347 348 348 347 346 346 346 346 346 346 347 345 342 344 347 348 348 348 348 347 345
347 347 347 346 344 343 344 345 346 347 347 347 347 347 347 348 348 347 346 347 348 349 349 348 347 347 348 347 344 346 348 349 350 350 348 346 345 345 344 344 345 346 348 348 349 350 350 350 349 350 350 350 350 349 349 349 349 348 347 347 348 349 348 346 345 346 347 346 345 345 345 346 346 346 347 346 343 342 344 345 347 349 351 352 348
347 347 347 345 342 343 345 346 346 347 348 348 348 347 347 347 348 347 347 347 348 349 349 348 347 345 345 345 345 346 348 348 348 349 349 348 346 345 345 344 344 344 345 347 347 349 350 349 349 350 350 351 350 348 347 348 348 347 347 347 347 348 347 345 345 346 347 347 346 346 346 346 346 346 347 348 346 345 347 348 348 348 350 352 352
347 347 347 345 344 345 346 345 346 347 348 348 348 348 347 347 348 348 347 347 348 349 348 348 347 345 345 345 344 346 347 346 346 346 346 346 346 346 346 345 345 344 344 345 346 347 348 348 348 348 349 349 348 345 342 344 344 344 343 344 345 346 345 345 346 346 346 347 346 346 346 346 346 346 347 348 349 349 350 352 354 353 352 351 352
348 347 347 347 347 347 346 345 346 347 347 348 348 348 348 348 347 348 348 348 348 348 348 348 347 345 345 345 345 346 347 347 346 345 344 344 345 348 349 348 348 347 346 346 346 345 345 346 347 347 347 347 345 341 339 340 340 340 339 336 337 339 341 343 346 347 348 348 347 346 346 346 346 347 347 347 348 349 350 352 355 357 355 353 353
347 347 347 347 347 347 346 346 346 346 346 347 348 348 348 347 347 348 348 348 348 348 347 347 346 345 346 347 347 347 347 347 347 346 345 343 343 346 349 349 350 350 349 348 347 346 345 345 346 346 347 347 343 339 339 340 338 335 334 333 332 334 335 336 339 343 346 348 348 347 347 348 348 348 348 349 348 348 349 351 353 355 354 352 352
347 348 348 347 347 347 347 347 347 346 346 347 348 348 347 347 348 348 348 348 348 348 347 346 345 345 346 347 347 347 346 347 346 345 345 344 344 345 347 348 349 350 350 350 350 349 348 348 348 347 347 348 345 342 342 342 339 335 333 334 335 335 335 334 333 335 338 342 346 347 346 346 348 347 348 349 349 349 349 350 351 353 352 349 348
348 348 347 347 347 347 347 347 347 346 346 347 348 348 348 347 347 347 347 347 346 346 345 345 345 345 346 346 346 346 346 346 346 344 344 344 344 344 345 347 349 348 348 349 351 351 349 348 348 348 348 348 348 346 344 344 343 340 338 339 339 338 338 337 334 333 334 337 342 344 342 342 344 344 345 347 347 346 348 348 350 352 354 353 350
348 348 348 347 347 346 346 346 346 346 346 346 347 348 348 348 347 346 345 345 345 344 344 345 345 345 346 346 346 346 346 345 345 345 344 343 344 345 345 346 348 348 346 347 348 348 347 345 345 346 346 346 346 346 345 345 345 344 343 342 343 343 344 344 342 341 342 341 341 342 341 341 342 342 343 345 345 343 345 346 347 348 349 351 351
347 347 347 347 346 345 345 345 345 346 346 346 347 347 347 348 348 348 347 346 345 345 344 345 345 345 346 346 346 346 346 345 345 344 344 344 344 345 345 346 347 348 349 349 347 345 345 345 344 344 344 344 344 343 343 343 344 345 345 344 346 347 346 345 345 346 347 345 344 345 345 343 343 344 343 344 344 345 347 349 350 349 349 348 349
347 346 346 347 346 345 344 343 344 345 346 346 347 346 346 347 347 348 348 348 348 347 347 346 346 346 347 346 346 346 345 345 344 343 343 344 344 345 346 345 345 346 348 348 346 345 345 344 343 344 344 344 344 343 343 342 343 345 344 344 346 346 343 341 341 343 344 344 344 345 345 344 344 345 345 345 345 345 347 348 349 350 351 350 350
347 346 345 346 346 344 342 342 343 345 346 346 346 346 346 346 347 347 347 348 347 347 347 347 346 346 346 346 346 345 345 345 344 343 343 343 344 344 345 345 345 346 347 347 345 345 346 345 344 344 344 344 343 343 343 343 344 345 344 344 345 345 342 341 341 342 343 343 343 344 344 344 344 345 345 345 346 344 344 345 346 347 348 348 347
348 346 345 344 345 344 342 343 343 344 346 346 346 347 346 346 346 346 346 346 346 346 346 346 346 345 345 345 345 345 345 345 344 343 343 343 343 343 343 344 345 346 348 348 347 346 346 345 344 344 343 343 343 343 343 344 345 345 345 345 347 346 343 343 343 343 344 343 343 343 344 343 344 344 344 345 345 344 343 344 345 345 346 346 345
348 346 345 344 345 346 345 346 345 344 345 346 346 347 347 346 346 346 345 345 345 346 347 346 346 346 346 345 345 345 345 345 344 344 344 343 343 343 343 344 344 345 346 346 345 345 345 344 344 343 342 342 342 343 344 344 345 345 345 345 347 347 345 344 344 345 344 343 342 342 342 342 342 342 342 342 342 342 341 342 343 343 344 345 345
347 344 345 346 345 346 346 347 347 346 345 345 345 346 347 347 347 347 346 345 345 345 346 346 346 347 347 346 346 345 345 345 345 345 344 343 343 343 344 344 344 345 345 345 344 344 344 344 344 344 343 342 343 344 344 344 344 345 345 345 345 346 345 344 344 344 344 343 343 343 343 344 344 344 344 345 345 344 343 343 342 342 342 342 343
345 342 344 345 345 346 346 346 347 346 345 344 344 344 346 346 347 347 347 346 346 346 346 346 346 347 347 346 346 346 346 346 346 346 345 344 344 344 344 345 345 345 344 344 345 346 345 345 346 346 345 344 344 344 344 344 345 344 344 345 345 344 344 344 344 344 344 343 344 345 346 347 347 347 348 349 349 349 349 349 347 346 345 344 345
343 344 344 343 344 345 345 345 346 346 346 345 344 344 345 345 346 346 347 347 347 347 346 346 346 346 346 346 346 346 346 346 345 346 346 345 344 344 344 345 345 345 345 345 346 345 345 345 345 346 345 345 345 345 344 344 345 344 344 345 344 344 344 344 344 344 343 344 344 345 345 346 347 347 347 346 346 347 348 349 349 349 348 346 347
342 345 344 343 345 345 343 343 345 345 346 346 345 345 345 345 345 346 346 347 347 348 348 347 345 345 345 346 345 345 345 345 345 345 346 345 344 344 343 344 344 344 345 345 345 344 344 344 345 344 344 344 344 344 344 344 344 344 344 344 344 344 344 344 344 344 344 345 345 345 345 345 345 345 345 345 345 345 345 346 347 349 349 347 347
341 343 342 342 344 344 341 341 341 342 344 346 345 345 345 345 345 345 345 347 347 348 349 348 346 346 347 346 345 345 344 344 344 345 345 345 345 344 344 344 344 344 345 345 344 344 344 344 345 344 344 344 344 343 343 343 343 343 343 344 344 345 345 345 345 345 345 345 345 345 345 345 345 345 344 344 344 344 345 345 345 346 346 347 346
344 344 344 344 344 341 340 341 341 340 342 344 345 345 345 345 345 345 345 346 345 346 346 346 347 348 348 347 347 347 345 344 345 346 345 344 344 344 344 344 344 344 344 344 343 344 344 344 344 344 344 343 343 343 343 343 343 344 344 345 345 345 345 345 345 344 344 344 344 344 344 344 344 344 343 342 342 342 342 342 342 342 342 343 343
346 346 345 345 345 342 341 342 343 341 340 341 343 345 345 345 345 345 345 345 345 345 346 346 347 348 348 347 348 348 345 344 345 345 346 344 344 343 344 343 344 344 343 343 343 343 344 344 344 344 344 344 344 345 345 345 345 345 345 345 344 343 342 342 341 340 340 340 340 340 340 341 341 341 341 340 340 340 340 340 340 341 341 342 342
344 346 345 344 344 344 343 342 342 342 341 340 342 344 345 344 345 345 345 344 345 345 346 347 347 347 348 348 349 347 345 345 345 345 345 345 344 344 344 344 345 345 343 344 345 345 344 345 345 346 346 346 346 346 345 345 345 344 343 341 340 339 338 336 336 336 336 337 338 338 339 339 339 340 340 340 341 340 340 340 340 341 341 341 341
338 344 345 343 343 342 342 341 342 342 342 340 341 343 343 343 344 345 345 344 344 345 346 346 345 345 345 346 347 347 347 347 346 345 345 345 344 345 345 345 346 345 344 345 345 345 344 344 345 345 345 344 344 343 342 342 341 340 339 338 338 337 336 335 336 337 337 337 337 337 337 337 338 338 338 338 339 339 339 340 340 340 340 340 340
334 340 343 344 343 341 340 341 342 342 342 342 341 341 341 341 342 343 344 344 344 344 345 345 344 343 344 344 345 345 346 346 345 344 344 345 345 345 345 345 345 345 344 344 344 343 342 342 342 342 341 341 340 339 339 338 337 337 337 337 337 336 335 334 336 336 335 334 334 335 336 336 336 337 338 338 338 338 339 339 340 340 340 340 340
334 339 343 343 342 341 340 342 342 341 341 342 342 341 341 341 341 341 340 340 341 341 342 342 342 342 342 343 343 343 343 344 344 344 344 344 344 344 344 344 345 344 343 343 342 342 341 341 340 339 338 338 338 337 337 337 336 337 337 337 336 336 334 334 335 334 333 333 333 333 334 335 335 335 336 336 336 337 337 338 339 339 340 340 340
336 343 345 343 338 335 337 340 341 340 340 341 341 341 342 342 341 339 338 338 338 339 339 340 339 339 340 341 341 342 342 342 342 342 343 343 343 343 343 342 343 342 342 341 340 340 339 338 338 337 337 337 337 337 337 337 337 337 337 337 336 336 335 334 333 333 333 334 334 333 334 334 333 333 334 335 335 336 337 337 337 338 338 339 340
338 344 345 343 336 331 333 336 338 340 342 342 342 341 342 342 342 341 339 337 337 338 338 339 338 338 338 338 338 339 339 340 341 341 341 341 340 339 339 339 338 338 338 337 337 338 338 337 337 337 337 336 336 337 337 337 337 337 336 336 336 335 334 334 333 333 334 334 334 334 334 333 333 333 334 334 335 335 335 335 336 336 337 337 338
339 344 344 340 336 331 330 334 338 341 342 343 343 343 341 340 341 342 342 340 338 338 338 338 338 338 338 337 337 337 336 337 337 338 338 338 338 337 336 336 335 335 335 336 337 338 337 336 336 336 336 336 336 336 337 336 336 335 335 335 334 334 333 333 333 333 334 334 333 333 334 333 333 333 333 333 333 333 333 333 334 334 335 335 336
341 345 342 338 337 336 334 336 341 343 342 342 343 343 341 340 340 341 342 343 342 341 340 339 338 338 338 338 337 337 336 335 334 334 335 335 335 335 334 334 335 335 336 336 337 337 336 335 335 335 336 336 336 335 335 335 334 334 334 333 333 333 333 333 333 332 332 333 333 333 333 333 332 332 332 332 332 331 332 333 333 333 333 333 334
343 344 341 336 337 341 342 340 341 343 343 343 343 343 342 341 341 341 342 342 342 343 342 341 340 339 339 338 338 338 337 336 335 334 334 334 334 334 335 335 336 337 337 337 336 336 335 335 335 335 335 335 334 334 333 333 332 332 333 333 332 331 331 330 330 331 332 332 332 332 332 332 331 331 331 331 331 331 332 332 332 332 332 331 332
342 345 344 338 336 340 342 340 339 341 344 344 343 342 342 342 341 342 342 342 342 342 342 342 341 340 339 339 339 338 338 338 336 335 334 334 335 335 336 337 337 338 337 337 335 335 334 334 334 334 333 332 332 332 331 330 329 329 329 327 325 326 327 327 329 331 332 332 332 332 331 331 330 330 330 331 331 331 331 331 331 331 331 330 331
341 343 344 342 340 340 341 340 340 343 344 344 343 342 342 341 341 342 342 343 343 343 342 342 341 341 340 339 338 338 339 339 337 336 335 335 336 337 337 337 338 338 337 336 334 334 334 333 332 330 328 327 326 326 326 325 323 324 324 321 319 321 323 325 327 328 329 329 330 330 330 329 329 329 330 330 330 330 330 330 330 330 330 330 330
339 338 337 336 337 340 342 342 342 343 343 343 342 342 342 342 342 341 341 342 342 342 341 341 341 341 341 340 338 337 338 338 338 338 337 336 337 337 336 336 337 337 336 334 334 333 331 329 326 322 320 321 320 320 321 321 320 320 320 320 321 322 323 326 327 327 327 329 328 327 327 328 329 329 329 328 328 329 330 330 330 329 330 330 330
340 337 332 328 331 337 341 342 342 342 342 342 341 341 342 342 341 341 340 340 340 340 340 341 341 341 341 340 338 337 337 337 338 338 338 337 337 337 336 336 335 335 335 334 331 327 325 324 320 316 318 319 319 319 322 323 323 321 320 322 325 326 326 328 328 328 327 327 327 325 324 324 325 327 327 326 326 327 328 329 329 329 329 329 329
340 338 332 325 328 336 341 341 341 341 341 341 341 341 341 340 340 340 339 339 339 339 340 340 340 340 340 339 338 336 336 337 338 338 338 338 338 337 337 335 334 333 334 333 328 325 326 325 321 320 323 324 322 322 325 327 327 327 326 327 329 329 328 327 327 326 326 325 325 325 323 321 321 323 323 324 326 327 327 327 328 328 329 329 329
340 339 335 329 330 336 340 340 340 340 340 340 340 339 339 338 338 338 338 338 338 338 338 338 338 338 338 337 336 335 336 337 337 337 338 338 338 338 337 335 333 333 333 331 327 325 327 326 325 326 329 328 325 326 328 328 329 329 328 328 329 329 328 326 324 324 326 326 325 324 324 323 323 324 323 324 326 327 326 326 327 327 327 327 328
340 339 338 337 336 338 340 340 339 340 339 339 339 338 338 337 337 337 336 337 337 337 337 337 337 337 338 337 335 335 336 336 336 337 337 337 338 338 336 334 333 333 332 329 327 325 327 328 329 330 331 330 328 328 328 328 328 328 327 327 327 327 327 326 325 325 327 327 326 325 325 325 326 326 325 325 326 326 325 325 325 326 326 326 326
339 338 338 339 339 339 340 339 339 338 338 338 338 338 338 337 337 336 336 336 336 336 336 336 336 337 337 336 335 335 336 336 336 337 337 337 338 337 334 332 332 331 330 329 329 329 330 331 331 331 331 330 329 329 327 327 328 328 327 327 326 325 325 326 326 326 326 327 327 327 326 326 326 326 325 326 326 325 324 324 324 324 324 325 325
337 339 340 339 339 340 340 339 338 337 337 338 338 338 336 336 336 336 335 335 336 336 336 336 336 336 336 336 334 333 334 335 336 337 337 337 336 333 331 331 331 330 330 331 332 332 332 332 331 331 330 329 328 328 328 327 327 327 328 328 327 326 326 327 326 325 325 326 327 327 327 326 326 326 325 325 325 324 324 324 324 324 324 324 324
338 341 340 339 340 340 339 338 338 338 338 338 338 337 336 335 336 336 335 335 335 336 336 336 336 336 336 336 335 334 334 336 337 337 336 335 333 331 330 331 331 331 332 333 332 331 331 331 330 329 329 328 328 329 328 327 324 323 323 325 325 326 327 326 324 324 326 326 326 326 327 326 326 325 324 324 324 324 324 324 324 325 325 324 324
340 340 340 339 340 340 339 338 338 338 337 337 336 336 336 337 336 336 336 335 335 335 335 336 336 336 336 336 336 335 335 335 336 336 335 334 333 332 332 333 333 332 332 332 331 331 330 330 329 328 328 328 327 326 326 327 325 322 322 322 320 320 322 321 319 321 324 325 325 325 326 325 325 324 324 324 324 324 324 324 324 325 325 324 324
340 340 340 340 340 339 339 339 338 336 334 334 334 334 335 336 337 336 336 335 335 335 336 336 336 336 336 336 336 336 335 335 336 337 335 334 334 334 335 334 334 333 332 332 331 330 329 328 327 326 326 324 322 320 322 325 325 324 323 321 318 316 316 314 313 316 320 321 322 324 325 324 324 324 324 324 324 324 324 324 325 324 324 324 324
340 340 339 339 339 339 338 338 336 333 331 332 333 333 332 333 335 335 335 336 336 336 336 336 336 336 336 337 337 337 336 336 336 337 336 335 336 336 336 334 333 332 332 332 331 330 329 327 326 326 325 323 321 320 321 322 323 323 323 321 318 318 318 316 315 315 314 314 318 323 325 324 324 324 324 324 325 324 324 324 324 324 323 323 324
340 339 339 339 339 338 336 335 333 332 332 333 334 333 331 330 331 331 332 334 335 336 336 336 337 337 337 337 337 338 338 337 337 336 336 336 336 336 335 333 331 331 331 331 329 328 328 327 326 325 325 324 324 324 324 324 324 324 323 321 320 320 321 320 319 318 314 312 317 323 325 324 324 324 324 323 324 324 324 324 323 323 323 323 322
340 339 339 339 338 336 333 331 331 332 333 334 334 334 332 331 330 331 332 333 335 336 337 336 337 338 338 338 337 337 337 337 337 337 336 337 336 335 333 332 330 329 330 331 330 328 329 328 327 325 325 325 325 326 326 326 326 325 324 323 322 322 323 323 322 321 317 313 314 319 323 324 323 323 323 323 323 323 323 322 322 322 322 322 321
Wind_Speed
9 10 11 12 14 17 18 19 20 22 25 27 28 28 27 28 27 27 29 31 29 27 30 32 31 30 30 29 28 27 26 27 25 23 24 24 23 21 18 19 22 21 19 19 16 14 14 14 13 12 11 11 11 11 11 10 10 9 9 9 8 8 8 8 9 10 9 8 7 7 6 6 7 8 9 9 9 9 9 9 9 8 8 9 9
9 9 9 11 13 14 15 16 19 22 24 27 29 29 28 27 28 27 28 32 33 29 28 31 31 30 30 29 29 28 27 27 26 25 25 25 25 23 21 20 24 23 19 18 18 15 14 15 15 13 12 12 12 12 12 11 11 11 10 10 9 9 9 9 10 10 10 10 9 9 8 8 8 9 11 11 11 12 13 12 12 11 10 10 11
12 10 9 11 12 13 13 15 18 21 24 27 28 29 29 28 29 30 29 32 35 32 28 28 30 30 29 29 29 28 27 27 27 26 25 25 25 25 22 21 23 23 20 19 19 17 15 15 16 15 13 13 13 13 13 12 12 11 11 10 10 10 9 10 11 11 12 11 11 10 10 9 9 9 11 13 13 14 15 14 15 14 13 12 12
13 10 8 9 10 11 13 15 18 21 24 28 28 29 30 30 30 31 31 31 33 33 30 28 29 30 29 29 29 29 28 27 27 27 26 25 25 24 24 22 21 21 21 20 19 18 17 16 16 16 15 14 13 13 12 12 12 11 11 11 11 11 10 11 12 12 13 13 13 13 12 12 12 12 13 15 15 16 16 16 16 16 17 15 13
9 8 7 8 8 10 12 15 20 22 24 27 28 27 28 30 31 31 32 32 32 33 33 30 28 29 30 28 27 29 29 27 26 27 26 25 24 24 24 23 21 20 20 20 19 18 18 17 16 16 16 16 15 14 13 13 12 12 12 12 11 11 11 11 12 12 13 15 15 15 15 15 15 15 16 17 16 16 17 18 18 18 18 18 16
7 7 7 7 8 9 11 14 18 21 23 26 27 27 27 29 31 33 34 34 31 32 33 30 27 27 29 28 26 26 27 27 26 26 26 24 24 23 23 23 22 21 20 20 19 19 18 18 17 17 17 17 16 15 14 14 13 12 12 12 12 12 12 12 13 14 15 16 16 17 17 16 17 17 18 19 17 16 18 18 19 19 18 19 18
7 7 7 7 7 7 10 13 16 17 20 23 24 26 28 29 30 32 34 33 30 30 31 31 28 26 26 28 28 26 25 24 24 25 25 25 24 23 23 23 23 22 21 20 20 20 19 19 19 18 18 18 18 17 15 15 14 14 13 13 13 14 14 14 15 15 16 17 17 17 17 17 17 17 17 19 19 18 18 20 20 20 19 20 19
7 7 7 7 7 7 9 11 13 14 17 20 22 25 28 30 31 32 32 32 31 30 30 32 32 29 26 27 28 26 24 23 22 22 23 24 23 22 22 23 23 23 22 21 20 20 20 20 20 19 19 19 19 18 17 16 15 15 15 14 13 14 15 15 16 16 17 17 17 17 17 17 18 18 18 20 21 20 19 21 22 21 19 19 20
7 8 8 8 8 8 9 10 12 13 14 17 19 22 25 29 31 31 31 31 31 30 31 33 32 30 28 27 25 24 24 25 25 23 22 23 22 22 22 22 23 23 22 21 21 20 20 20 20 20 20 21 22 23 22 20 19 18 16 15 15 16 17 18 17 17 18 18 18 18 18 18 19 19 19 20 21 21 20 20 22 22 20 20 21
8 8 9 9 9 8 9 10 10 11 13 14 15 19 24 29 30 29 28 28 28 28 30 33 31 27 27 26 25 25 25 25 27 27 26 25 23 22 22 22 22 23 22 22 21 21 21 21 21 22 23 24 26 27 26 24 24 23 21 19 18 18 19 19 19 19 19 19 20 19 19 20 19 19 19 19 19 20 19 19 19 20 20 21 21
8 9 9 9 9 9 9 9 9 9 11 11 12 16 18 25 29 27 25 26 26 27 30 32 30 26 25 25 25 26 26 24 24 25 26 27 25 22 21 21 21 22 23 23 23 22 22 21 21 22 23 26 28 29 27 27 28 28 27 25 24 23 22 20 20 19 19 20 21 20 20 21 20 19 19 19 18 18 19 19 18 19 20 21 21
8 8 8 8 9 9 9 7 7 7 9 9 9 12 5 15 25 24 24 25 25 26 28 29 28 26 25 25 24 25 26 26 26 26 26 27 26 24 22 20 20 21 21 22 22 22 21 21 21 20 21 24 27 27 26 27 29 29 28 28 27 26 26 24 23 22 21 22 22 22 23 22 22 21 19 18 18 18 18 18 19 21 22 23 24
7 7 7 7 8 8 8 6 5 5 6 7 6 6 4 9 17 19 20 23 25 26 26 25 25 25 24 24 25 25 26 27 27 28 27 27 27 27 25 23 23 23 21 20 19 19 19 20 20 20 19 20 23 24 23 24 26 28 27 27 26 26 26 26 26 25 25 25 25 26 26 25 25 24 22 20 19 19 20 20 20 21 24 26 27
5 6 6 6 6 6 6 5 5 5 4 3 2 1 3 7 10 14 16 19 22 24 23 22 22 22 22 23 23 24 26 26 26 26 27 27 27 28 29 27 27 28 26 23 21 20 21 23 22 20 19 19 20 21 21 22 23 25 25 25 26 26 26 26 27 27 27 28 28 29 29 28 28 28 25 24 23 23 23 23 22 22 23 25 28
5 5 5 5 5 5 5 5 4 4 3 2 1 3 5 7 9 12 15 17 19 21 21 20 20 21 22 22 23 24 24 25 25 25 25 26 26 27 30 29 28 28 28 28 28 27 26 28 27 25 24 24 23 23 23 22 22 23 24 25 25 25 24 24 25 25 26 28 29 30 30 30 30 29 27 26 26 26 25 26 27 27 27 28 30
5 5 5 5 5 5 5 5 3 2 3 2 2 3 5 8 10 12 14 16 18 19 20 21 21 22 22 22 23 24 24 24 24 24 24 25 25 26 29 30 29 27 25 27 31 31 30 29 29 28 28 28 27 27 26 25 24 23 25 26 24 24 25 25 24 25 26 27 27 28 30 30 29 30 30 28 28 27 25 25 26 26 28 30 31
4 3 4 5 5 6 6 4 3 2 2 2 3 3 4 6 9 11 13 15 17 19 20 21 22 22 22 22 23 24 24 23 24 24 24 24 26 27 28 29 30 29 28 29 32 32 31 31 30 28 28 28 28 27 27 26 24 24 27 27 26 26 28 28 27 28 28 27 28 28 29 30 30 30 31 30 29 28 27 27 28 26 27 29 29
3 3 4 4 6 7 6 4 3 3 2 2 3 4 5 6 8 9 11 13 16 18 19 20 21 22 22 22 23 24 24 24 24 24 23 23 25 27 28 29 29 28 27 30 31 30 30 31 29 28 27 27 28 28 27 26 24 25 27 27 26 27 28 27 28 29 28 27 28 28 29 30 31 32 33 32 32 31 31 33 33 31 31 33 32
3 3 3 4 5 5 5 5 4 3 2 3 4 4 5 6 8 9 10 12 14 15 17 19 21 21 22 23 23 24 24 24 25 25 24 23 25 27 29 29 28 26 25 26 28 29 30 31 30 29 28 28 28 29 28 27 25 26 27 25 24 26 27 26 27 28 27 28 28 28 29 30 31 32 33 34 33 32 32 34 34 34 35 37 37
3 2 2 2 3 3 3 4 5 4 4 4 5 5 6 6 7 8 10 11 12 13 15 17 19 20 21 21 22 23 24 24 24 25 25 25 25 27 27 28 28 27 26 28 30 31 31 31 30 29 29 28 28 29 28 28 27 26 27 25 23 23 24 25 26 26 27 28 28 29 30 31 31 32 32 33 33 33 34 34 35 35 37 39 39
3 2 2 2 2 2 3 4 5 6 6 6 5 6 6 6 7 8 9 11 12 13 14 15 15 15 16 18 19 20 20 21 22 23 23 23 25 26 26 26 26 26 27 28 29 29 29 28 27 27 27 27 27 28 28 28 27 26 26 26 24 24 24 25 26 26 28 29 29 30 31 31 31 31 30 29 31 33 34 35 36 37 38 39 40
2 2 2 2 2 2 3 3 4 6 7 8 7 6 6 7 7 8 9 10 11 11 11 12 12 13 14 15 16 17 18 19 20 20 21 22 24 25 25 24 23 24 25 25 25 25 26 25 25 25 25 24 25 26 27 27 26 26 26 26 26 26 26 26 27 28 29 31 30 29 29 28 28 27 26 26 28 29 30 32 35 36 36 37 38
2 2 2 3 3 4 4 4 4 5 7 8 8 8 8 8 8 8 9 9 9 9 9 10 11 11 12 13 14 14 16 18 19 19 20 21 22 23 24 23 23 23 23 22 22 22 22 21 21 23 23 23 22 23 25 26 26 26 26 25 26 27 27 27 28 29 31 32 32 32 32 31 31 31 32 33 34 33 32 32 34 35 35 35 35
3 3 4 4 3 3 3 4 5 5 6 7 8 8 8 8 9 9 9 8 8 8 9 9 10 10 10 12 12 13 14 16 18 19 19 20 21 22 22 22 23 22 22 21 20 19 18 17 17 19 20 20 20 22 23 25 25 25 25 25 25 25 26 27 29 30 32 33 33 34 34 33 32 33 35 35 36 35 33 33 33 33 35 35 34
5 5 5 4 3 3 3 3 4 4 5 5 6 7 8 9 10 10 9 9 9 9 9 9 9 10 10 11 11 11 12 14 15 17 18 19 21 22 22 22 22 22 21 20 19 18 17 16 15 15 16 17 19 21 22 23 24 24 24 24 24 26 28 29 30 31 32 32 32 32 31 30 30 31 33 33 33 32 32 33 34 34 35 36 35
6 5 5 4 4 4 4 4 4 4 4 5 5 6 7 8 10 11 11 11 11 10 9 9 8 9 10 10 9 9 10 11 12 13 14 16 18 19 20 21 22 21 20 19 19 20 18 17 16 16 16 17 18 19 20 21 22 23 23 24 27 27 27 27 27 27 26 25 25 24 23 22 23 25 27 29 30 30 31 32 32 32 32 33 35
5 5 4 4 3 4 4 4 4 4 4 4 5 5 5 6 7 9 10 11 11 10 9 8 8 8 9 8 9 10 11 11 11 12 12 13 14 15 16 18 19 19 19 20 20 20 19 18 18 17 17 17 17 18 20 21 23 23 23 24 24 22 20 20 21 24 25 23 21 21 20 19 20 22 23 25 26 27 28 29 29 29 28 29 32
6 5 5 4 4 4 5 5 5 5 4 5 5 5 5 5 6 7 9 10 11 10 9 9 10 10 8 8 9 10 10 10 12 12 12 13 14 15 16 17 18 18 18 19 20 20 19 19 18 18 18 18 17 18 18 19 19 18 17 17 15 14 15 18 19 20 20 19 18 18 18 18 20 21 22 22 22 23 25 26 27 27 27 28 31
7 7 6 5 5 5 5 5 6 5 5 6 6 6 6 7 7 8 9 9 9 10 10 10 10 9 9 9 10 10 9 10 12 12 12 13 15 15 16 17 16 14 15 18 19 18 18 18 18 17 15 14 13 13 13 12 12 11 11 10 9 9 11 13 12 11 12 13 14 15 16 17 18 19 20 20 20 22 23 23 24 25 26 27 29
10 9 8 7 7 6 5 5 5 5 5 7 7 7 7 8 9 9 8 8 8 9 10 10 9 8 8 9 10 10 10 11 11 12 12 13 14 14 15 16 14 10 10 13 14 13 13 14 14 13 11 10 10 11 11 11 11 11 10 8 6 6 8 8 7 8 10 12 14 15 15 16 17 17 17 18 20 21 22 22 22 24 24 25 27
13 12 11 9 8 7 7 7 7 7 8 7 7 7 7 8 9 10 9 9 9 10 10 10 10 9 9 9 9 9 10 10 10 10 11 12 12 13 14 14 13 11 10 11 11 9 9 9 10 11 11 11 11 11 11 11 11 10 8 7 5 6 7 7 6 8 10 11 12 13 13 14 14 14 15 16 19 20 21 21 22 23 22 22 24
15 15 14 13 11 8 8 9 9 9 9 9 8 7 7 7 8 9 10 10 10 10 10 11 10 10 10 10 10 10 10 11 10 10 11 11 12 12 13 14 14 13 12 12 10 9 9 9 10 11 11 11 10 10 10 9 8 7 6 6 5 5 6 7 8 9 10 10 11 12 12 12 13 13 13 13 15 16 17 17 19 20 21 20 21
17 16 16 15 13 11 10 11 11 10 10 10 10 9 9 9 9 9 10 10 10 10 10 10 10 10 10 10 10 10 11 11 12 12 12 12 12 13 13 14 13 12 12 12 10 8 8 9 10 12 11 10 9 8 7 6 6 5 5 5 4 5 6 7 8 8 9 9 9 9 9 10 11 11 10 10 10 11 12 13 14 15 16 16 17
18 17 17 17 15 14 14 14 12 10 10 10 9 10 11 11 10 10 10 10 11 11 11 11 11 10 10 10 10 10 10 11 11 12 12 12 12 12 12 12 11 11 11 11 9 6 7 8 9 10 9 8 6 6 5 5 5 5 5 5 4 5 6 6 6 6 6 6 6 6 7 8 8 7 7 7 8 8 9 10 11 11 11 12 12
17 17 18 17 16 14 15 15 13 11 11 11 10 11 11 12 12 12 11 10 10 11 11 11 12 11 10 10 10 9 9 9 10 10 11 11 10 10 10 10 10 10 11 11 9 6 7 8 7 6 6 5 5 5 5 4 4 4 4 4 3 3 4 4 3 3 3 4 4 5 6 6 6 6 6 6 7 8 8 8 9 9 9 10 10
17 16 16 17 16 14 14 15 15 13 11 11 11 11 12 12 12 12 12 12 11 11 11 12 13 13 12 11 11 10 10 9 9 9 10 9 9 9 9 9 9 9 9 9 7 6 6 6 5 5 5 5 5 5 4 4 4 4 3 3 3 2 2 2 1 2 2 2 3 4 4 4 4 5 5 6 7 7 8 8 8 8 8 9 10
17 15 14 15 16 15 15 16 16 14 12 11 11 12 13 13 13 13 13 13 12 12 13 14 13 14 14 13 12 12 11 10 10 10 10 10 11 11 10 8 7 7 7 6 6 6 5 5 6 6 6 5 5 5 4 4 4 4 4 3 3 2 1 1 1 1 1 1 2 3 3 3 4 4 4 5 6 6 7 7 8 7 8 9 9
18 16 15 13 13 12 13 14 14 13 12 11 12 12 13 13 14 14 14 13 12 11 13 14 13 13 14 15 14 14 13 12 11 11 11 11 11 11 11 10 8 7 8 7 6 6 6 7 8 8 7 6 6 5 5 4 4 4 4 3 3 3 2 1 1 3 3 2 2 2 2 2 3 3 4 4 5 5 6 7 7 7 7 8 7
18 18 16 14 12 10 11 12 13 13 13 13 13 13 13 14 14 14 14 14 13 12 13 14 13 12 14 16 16 15 15 14 13 13 13 13 12 12 12 10 8 8 8 8 7 8 8 9 8 7 7 7 6 6 5 4 3 2 1 1 1 1 1 1 1 3 3 1 1 2 3 3 3 4 4 5 5 5 5 6 6 7 6 6 6
18 16 15 14 12 11 11 12 13 13 13 13 13 12 12 13 13 13 13 13 14 14 14 14 14 14 16 17 16 16 16 15 14 14 14 14 13 12 12 11 10 9 8 8 9 9 8 8 7 7 7 7 6 6 6 5 3 2 2 3 2 1 1 2 2 2 2 2 1 3 4 4 4 4 4 6 7 7 6 6 6 6 6 6 6
16 14 12 12 12 11 11 12 13 13 12 12 12 11 11 11 11 12 12 12 13 13 14 14 14 16 18 18 15 15 16 15 14 14 14 14 14 14 13 11 10 9 9 11 11 9 8 9 8 7 6 6 6 6 5 4 2 1 2 3 3 3 2 3 4 4 3 3 3 3 4 5 6 5 5 6 7 7 7 7 7 6 6 6 6
14 12 11 11 12 11 11 12 12 13 13 12 11 11 11 11 11 11 11 12 12 13 13 13 13 15 19 18 15 15 16 16 15 15 15 14 15 15 12 11 10 10 11 13 12 11 11 10 9 7 6 6 6 5 4 3 3 3 3 3 4 4 4 3 3 4 4 2 2 2 3 5 6 6 6 7 6 6 7 7 7 7 7 7 6
13 13 12 12 12 11 11 11 11 12 12 12 11 11 11 11 11 11 10 11 12 12 12 12 11 13 16 17 16 17 18 17 15 15 15 16 16 14 12 12 13 14 14 14 13 13 12 11 10 9 8 7 6 6 5 5 5 4 4 4 4 4 4 4 3 2 2 1 0 2 3 3 4 4 5 6 5 5 6 7 7 6 7 7 7
15 14 14 14 13 12 12 13 13 13 13 13 12 12 12 12 11 10 10 11 11 11 12 12 11 12 14 16 18 20 20 17 15 14 14 15 16 14 13 14 15 15 15 14 14 13 13 11 10 9 8 8 8 8 8 7 7 6 5 5 4 4 4 4 4 3 3 2 1 1 2 2 3 3 4 5 5 5 6 7 7 7 6 6 6
17 16 15 16 15 13 13 13 14 14 14 13 13 12 12 12 11 10 10 11 11 11 12 12 11 11 12 14 16 20 21 18 16 14 13 13 14 13 14 14 15 16 15 14 14 14 13 10 9 9 9 9 10 10 9 9 9 7 7 6 5 4 4 5 4 4 3 2 2 2 3 3 3 3 4 4 4 5 6 6 6 7 7 6 6
18 18 17 17 16 15 14 14 14 14 14 13 12 11 11 11 11 10 10 11 12 12 12 12 12 12 12 12 14 17 19 17 15 13 13 14 15 15 15 15 16 16 15 14 14 13 11 10 10 10 10 11 11 11 10 10 9 8 8 7 6 6 6 5 4 4 3 3 3 3 4 4 4 5 6 6 5 5 7 7 6 7 7 6 6
18 19 18 17 17 16 15 15 15 15 15 13 12 11 10 10 9 9 10 11 13 14 14 14 14 13 14 14 14 15 17 17 15 14 15 16 15 15 15 15 15 15 15 14 14 13 12 12 12 11 11 11 11 11 11 10 8 7 7 6 6 6 5 5 4 3 4 4 4 4 4 4 4 6 7 7 6 6 7 7 7 7 8 7 7
19 19 19 18 18 17 15 15 17 17 16 14 13 12 11 10 9 9 9 11 13 14 14 15 15 15 15 15 15 15 16 16 16 16 16 16 16 15 15 15 15 15 14 14 14 13 13 13 13 12 12 12 12 11 11 10 9 7 6 5 5 4 3 3 3 3 4 5 5 5 5 5 5 6 7 7 7 7 7 7 8 7 7 8 8
20 19 19 19 18 17 16 16 17 17 16 15 13 12 12 11 10 10 10 10 11 12 13 15 15 15 15 15 15 14 15 16 16 16 17 16 16 16 16 16 16 16 15 14 15 15 14 14 14 13 12 12 11 11 10 10 8 8 7 7 6 5 4 3 3 4 5 5 5 4 6 6 7 8 8 8 8 8 8 7 8 8 8 8 8
21 19 19 19 18 17 16 16 16 16 15 14 13 12 12 11 11 11 10 10 10 11 12 13 14 14 15 15 15 15 15 17 17 17 17 17 17 16 16 17 17 17 15 15 15 15 15 15 15 15 13 12 11 10 9 9 9 8 8 8 7 6 5 5 5 5 6 5 4 5 7 8 8 8 9 9 9 9 9 9 8 8 9 9 8
20 20 19 18 17 17 17 17 17 16 15 14 12 12 11 11 11 10 10 10 10 10 12 13 13 13 14 14 14 15 16 17 18 18 17 17 17 17 17 17 18 18 17 16 15 16 16 16 16 16 15 14 12 11 10 9 9 8 8 7 7 7 6 6 6 6 7 7 5 5 6 8 8 9 9 9 9 9 10 10 9 8 9 9 9
Wind_Direction
231 237 243 244 244 243 242 242 243 244 242 242 241 237 235 235 231 226 227 228 222 218 223 223 218 217 218 216 213 213 215 214 211 213 216 215 212 209 208 217 221 219 220 220 215 219 223 219 219 222 223 224 227 231 233 234 235 239 240 241 247 253 253 257 265 274 278 277 280 283 283 283 278 274 273 268 268 277 278 278 286 286 284 291 293
249 239 243 252 253 252 250 246 244 246 245 243 241 238 235 233 230 226 224 227 224 218 220 222 218 216 217 216 214 214 214 214 211 211 215 216 215 211 207 214 222 219 217 218 216 216 222 223 222 225 229 231 231 232 235 235 238 240 238 241 248 251 252 255 262 269 274 276 277 278 281 284 281 280 285 280 267 272 277 273 273 276 273 274 277
264 252 245 251 255 259 260 254 249 247 248 248 244 239 236 232 230 228 226 227 226 220 218 221 218 214 215 216 215 214 214 215 213 212 214 216 216 214 212 215 222 220 215 217 217 217 221 225 227 227 229 233 233 234 237 237 239 240 240 243 249 254 253 256 261 264 269 273 274 276 278 280 281 281 286 286 278 275 277 272 269 271 270 268 268
266 256 246 248 252 256 259 258 255 251 250 253 250 242 237 235 232 230 229 229 225 219 215 216 216 214 213 214 215 215 214 215 215 213 214 216 217 216 214 214 219 218 216 218 220 220 222 225 227 227 228 231 231 231 235 236 236 239 243 247 250 254 255 256 261 265 269 271 271 274 275 276 280 280 280 283 282 279 277 272 269 271 273 274 269
256 250 246 250 256 262 263 260 259 256 253 253 251 246 240 237 234 230 228 229 225 219 214 212 212 214 214 212 213 216 215 214 216 215 214 216 218 217 216 215 217 217 216 217 218 220 222 223 225 226 227 229 229 230 232 234 236 238 242 245 248 251 252 253 257 261 266 269 272 275 276 277 280 281 282 283 279 275 276 274 270 269 272 277 277
241 242 245 250 261 275 277 269 264 260 257 254 251 246 240 237 237 232 227 227 225 221 219 215 210 214 216 213 210 214 216 216 218 218 216 217 220 220 219 219 219 219 218 218 219 220 221 222 224 226 227 227 228 230 230 231 235 239 242 245 246 249 251 253 257 261 264 269 273 275 276 277 278 278 281 282 275 268 271 274 273 271 271 273 277
236 239 241 246 262 286 292 283 275 267 264 262 255 247 241 237 237 235 230 228 225 221 220 216 209 210 216 216 211 211 215 217 220 220 218 217 220 221 221 221 222 222 221 221 221 222 224 225 226 226 228 229 230 232 233 234 236 238 242 247 249 250 252 254 258 262 265 268 271 273 274 275 276 276 276 278 276 269 265 268 271 273 274 275 275
239 245 243 242 262 289 296 290 285 276 270 267 261 253 245 239 236 234 230 225 222 220 217 213 212 213 216 219 217 213 214 215 216 218 219 218 220 222 222 222 223 224 225 225 224 225 225 227 229 229 229 230 231 231 232 234 238 240 242 248 252 253 255 256 257 259 261 264 267 269 270 270 272 273 272 274 276 273 269 268 268 268 270 274 276
251 256 256 257 270 286 289 290 291 286 280 274 266 259 251 241 235 232 228 221 217 217 213 210 213 215 215 219 219 214 215 218 216 215 217 218 219 222 224 223 223 224 225 226 227 228 228 228 230 230 231 232 234 235 235 235 238 242 245 249 253 254 257 260 258 257 258 261 263 265 266 267 268 270 269 269 272 274 273 271 270 269 268 268 271
256 255 259 265 273 280 282 287 296 296 291 284 279 275 260 241 230 226 222 217 213 212 210 209 211 213 213 214 213 212 218 225 224 220 218 218 218 221 225 225 224 225 225 225 227 229 230 231 232 233 234 236 239 242 243 242 245 249 251 252 252 253 257 260 258 256 256 258 261 262 264 265 265 266 267 267 269 272 271 268 267 269 270 269 268
254 254 256 261 270 277 280 287 298 308 306 300 306 308 275 232 218 215 213 210 207 206 206 207 209 209 209 208 208 211 219 226 226 222 222 222 220 219 223 226 225 225 225 226 228 229 231 233 234 235 237 240 244 248 250 250 252 254 256 256 254 252 254 254 253 253 254 256 259 259 260 263 264 264 265 267 267 268 269 266 263 262 265 267 268
256 257 256 258 269 279 286 294 300 311 320 319 330 345 322 203 200 203 205 205 203 201 202 203 203 202 204 206 209 214 220 224 225 225 226 226 224 221 222 225 228 228 227 227 229 230 231 232 233 234 236 242 249 252 253 254 256 256 257 259 257 253 253 253 251 249 250 252 256 257 258 260 262 262 263 265 266 267 267 265 263 263 265 267 267
256 257 258 260 270 283 293 305 305 304 323 332 337 7 64 168 188 196 202 204 200 197 198 200 201 202 206 210 212 214 218 222 224 227 228 227 225 223 223 224 228 228 226 227 229 229 229 230 231 231 233 240 248 251 250 253 256 257 257 257 257 256 255 255 254 252 251 252 254 257 258 260 262 262 262 263 265 267 269 269 267 267 270 274 273
253 255 260 262 269 285 296 305 307 302 313 336 342 46 122 156 178 187 194 198 196 195 199 201 202 205 210 214 215 216 220 222 222 225 227 226 225 225 225 225 227 228 226 225 226 226 227 229 231 232 232 235 241 247 248 248 252 256 256 255 256 257 256 256 255 255 254 253 253 256 258 260 262 263 263 264 266 269 271 272 271 267 269 273 275
240 247 255 256 264 279 286 284 293 301 296 288 185 177 173 171 178 184 188 190 189 193 199 202 205 210 213 216 218 220 222 224 224 225 228 230 228 227 227 228 230 231 231 231 232 233 233 234 236 238 238 239 240 244 246 248 250 253 254 255 256 256 255 254 254 254 254 254 256 259 260 260 260 262 263 264 267 270 271 271 272 269 267 268 271
225 229 240 245 250 260 266 266 270 273 270 257 221 197 191 185 185 188 192 194 193 195 200 205 210 215 217 219 222 225 226 227 227 228 231 234 232 230 229 230 230 231 232 233 236 238 238 239 240 242 242 244 245 246 247 249 251 252 253 254 254 253 253 252 251 251 253 255 257 259 262 263 262 262 263 264 267 270 271 271 271 270 269 269 270
222 218 228 236 239 246 256 267 275 262 242 233 228 219 207 195 190 190 195 199 202 204 206 209 214 217 220 221 224 227 229 231 232 233 234 234 232 231 232 233 234 234 234 236 238 238 239 240 242 243 244 245 247 248 249 249 250 251 252 253 253 254 255 256 255 254 255 258 257 257 260 264 264 262 263 264 265 268 268 267 266 265 265 266 267
227 221 222 231 234 240 249 259 271 268 240 211 219 223 217 207 199 199 202 205 210 213 212 213 215 218 219 221 224 228 230 232 235 237 237 234 230 231 233 235 236 237 237 241 241 239 240 242 242 242 244 247 248 249 248 248 248 249 251 253 254 255 256 257 257 257 259 261 261 260 263 265 264 263 262 263 264 267 267 266 266 266 265 265 267
225 223 218 230 238 240 249 257 260 254 224 204 208 214 217 216 208 206 209 212 216 220 220 219 220 221 222 224 227 230 231 233 235 237 238 235 231 231 232 233 235 236 235 239 240 239 241 245 245 244 245 246 247 246 246 247 247 248 251 252 254 255 256 256 258 259 262 264 265 267 269 269 267 265 263 262 263 264 263 263 265 267 267 270 271
225 234 221 229 239 229 229 243 245 234 217 211 210 207 210 218 213 206 211 216 217 219 222 222 221 223 226 229 231 234 234 234 236 237 237 235 231 231 231 232 234 235 234 237 241 242 244 247 249 250 248 247 247 246 245 246 245 246 251 254 255 256 257 258 259 262 266 268 269 272 274 273 271 271 269 267 266 266 264 262 262 263 265 268 269
214 225 205 211 227 212 212 229 233 227 221 219 223 218 208 210 211 205 204 209 214 217 219 217 215 219 225 228 230 233 233 233 235 237 235 233 231 230 232 234 236 236 237 239 242 244 246 247 249 252 251 247 246 245 245 245 243 244 250 256 259 260 262 263 265 268 271 273 274 275 276 276 274 275 274 272 272 272 270 267 265 264 265 266 267
208 215 197 196 201 197 207 218 224 228 226 223 228 228 214 209 213 211 206 206 212 217 218 214 211 213 220 225 227 229 230 230 232 235 234 231 230 231 232 233 234 235 236 238 239 242 246 247 248 250 252 250 247 245 242 242 242 245 251 257 261 263 264 265 267 268 270 273 274 274 275 275 274 274 273 269 270 271 270 269 269 267 266 267 268
200 216 222 217 208 203 205 203 207 224 232 231 232 229 220 214 215 220 222 217 217 221 220 219 221 220 223 228 230 231 232 230 230 231 232 230 229 230 231 231 231 231 233 236 239 244 250 252 251 252 253 253 249 242 238 240 244 249 253 256 259 261 262 264 266 267 270 273 275 275 275 276 276 276 276 275 276 275 272 270 270 269 269 270 269
202 220 238 239 222 213 213 199 197 209 220 233 241 236 226 220 219 225 229 223 219 222 221 223 230 232 232 235 236 234 232 230 229 231 231 230 229 229 230 231 232 233 235 240 246 250 253 254 252 250 249 248 244 240 239 243 248 251 253 256 259 262 264 266 268 270 272 274 276 277 278 278 279 279 279 280 281 280 275 272 272 272 273 272 269
200 216 240 248 235 231 240 229 215 209 206 220 242 245 237 227 222 226 228 222 218 220 220 222 223 221 225 232 234 233 230 227 226 230 231 230 230 231 232 233 234 235 237 241 247 250 248 247 246 244 243 241 241 242 245 248 251 253 256 260 263 264 267 270 272 274 276 276 276 277 278 279 280 280 280 279 279 277 275 273 272 273 274 274 273
193 204 223 235 234 239 244 241 238 226 209 207 223 238 242 234 228 230 232 230 227 225 225 228 222 215 221 224 222 229 235 228 222 225 230 230 230 232 233 233 232 232 233 235 241 246 247 247 246 247 246 244 244 247 249 252 255 258 261 264 266 268 271 274 274 273 273 273 274 276 276 276 276 275 275 275 276 275 276 277 277 277 277 277 278
192 201 212 220 231 240 238 232 233 234 228 220 215 222 234 235 233 237 238 233 232 230 228 229 225 221 227 225 219 229 239 231 222 223 227 229 230 229 230 230 229 228 230 234 238 243 247 249 249 250 251 251 251 252 254 257 259 261 264 267 268 269 269 267 265 265 267 270 273 275 276 276 276 275 275 276 278 277 279 281 281 281 280 279 279
201 204 211 215 225 239 239 230 228 228 228 226 218 214 222 224 226 236 238 233 230 227 223 224 225 225 226 222 223 233 239 234 230 228 226 229 233 231 230 232 229 223 226 233 237 239 245 248 249 250 251 253 255 258 261 262 262 261 263 265 265 264 263 265 267 270 272 274 276 278 280 279 278 278 278 278 279 279 280 281 281 281 279 277 277
209 204 206 209 216 228 235 231 230 229 230 235 229 217 214 218 220 231 241 240 233 226 222 225 231 232 227 225 228 230 230 232 235 234 229 230 234 233 233 238 238 230 228 234 237 239 241 242 243 247 252 254 255 257 258 261 263 263 262 261 258 259 264 270 276 276 274 277 280 282 283 283 281 281 282 281 280 280 281 281 281 282 282 281 280
210 207 209 209 211 218 220 219 225 231 233 240 244 236 225 222 221 225 235 239 233 226 225 231 238 238 233 234 235 230 227 234 240 238 232 231 234 234 235 241 247 242 227 226 231 235 234 232 236 245 251 250 247 245 244 246 250 252 255 255 252 257 266 272 274 274 280 289 292 292 291 290 288 287 286 282 280 280 282 283 283 286 289 288 287
207 202 202 203 207 210 208 206 215 224 226 232 242 242 236 231 229 230 235 239 236 231 230 235 240 238 234 236 239 236 235 238 241 238 234 231 232 233 235 237 240 237 225 224 231 236 232 228 232 237 238 235 234 234 233 234 236 239 245 251 253 260 270 276 278 284 292 297 299 301 302 299 296 293 289 285 284 286 288 287 286 288 290 290 291
206 198 195 201 210 213 206 205 210 215 218 225 229 229 227 229 234 239 242 242 241 237 233 234 236 235 231 231 236 240 240 238 236 235 235 233 232 233 235 236 237 238 236 235 234 229 223 224 228 231 231 229 229 228 227 229 234 238 241 246 255 265 273 280 285 291 295 296 298 303 307 305 306 307 305 302 301 299 297 293 290 290 290 289 292
210 202 199 204 213 214 208 210 213 211 210 216 219 219 220 220 225 235 241 241 240 238 234 230 229 229 229 229 232 237 238 236 235 236 236 237 237 236 237 237 237 233 228 223 219 215 215 218 221 225 225 223 222 226 227 226 229 235 238 245 257 262 267 278 286 289 290 292 295 303 309 310 312 314 312 311 310 308 307 306 303 301 300 297 296
213 208 209 212 214 214 211 209 210 210 210 211 211 215 219 220 220 225 231 234 236 235 232 228 224 222 224 227 228 230 232 234 235 238 239 239 239 237 234 231 227 221 216 215 213 212 216 218 217 219 220 220 219 221 225 229 232 237 244 250 257 259 262 270 277 280 288 299 305 310 315 315 315 315 316 319 323 325 325 320 318 318 318 315 312
216 215 219 220 216 215 213 208 203 204 210 213 213 215 220 223 223 223 225 226 229 230 228 225 222 221 223 225 226 226 227 228 229 230 232 233 231 227 223 220 218 217 220 223 222 215 213 216 216 213 213 216 218 220 225 232 234 236 243 247 249 253 256 260 268 281 299 312 314 316 321 322 323 326 328 331 336 340 336 328 324 326 326 325 326
221 221 227 228 221 215 213 209 204 202 205 212 215 217 220 223 223 223 225 227 227 228 227 224 221 221 224 227 230 230 230 227 224 221 220 219 219 217 215 218 223 224 225 225 222 214 210 209 207 209 213 212 215 222 224 221 219 220 223 224 221 223 231 242 272 310 331 336 336 342 345 342 340 343 342 338 339 341 336 328 327 328 327 330 335
225 221 227 233 229 222 218 214 208 203 202 208 215 219 221 223 223 224 226 228 227 228 231 232 229 226 227 228 230 233 234 232 228 223 221 219 219 217 213 214 223 231 229 221 212 207 206 204 203 207 210 207 204 208 206 200 196 191 181 176 177 183 196 201 160 97 59 36 27 23 18 8 4 2 353 342 339 340 338 334 333 333 331 334 341
227 221 220 227 228 224 223 220 212 206 203 206 214 220 222 224 226 226 230 233 231 230 234 239 239 235 230 229 230 230 231 232 230 229 228 226 224 224 220 214 215 226 230 225 215 204 201 204 206 205 201 196 191 186 182 177 172 172 174 172 162 155 161 170 127 82 64 45 19 17 18 10 7 6 1 352 347 345 345 344 344 343 340 341 346
228 227 228 232 231 222 219 220 217 212 208 207 212 219 221 223 226 228 231 235 236 235 235 237 237 233 229 230 229 226 226 229 229 230 233 232 229 231 231 223 218 223 227 224 217 208 202 206 208 197 183 176 169 161 157 151 143 141 143 149 159 167 168 167 130 76 70 62 356 18 27 16 4 359 354 351 355 356 352 349 350 351 349 347 348
227 231 236 240 234 219 213 216 217 216 211 206 206 213 219 224 229 234 236 239 241 240 238 236 234 232 233 233 230 224 224 229 228 227 231 232 230 232 235 229 223 221 219 218 217 209 200 200 198 181 170 170 167 161 160 155 143 115 85 100 137 180 161 147 151 130 119 123 64 38 35 33 31 17 351 350 0 4 357 352 353 353 352 351 348
224 228 237 242 233 216 209 211 214 215 213 208 205 210 217 223 229 234 237 239 240 241 241 240 236 234 237 239 234 225 224 228 227 223 222 224 226 232 234 228 219 213 211 214 212 199 188 193 193 180 174 179 176 168 166 162 162 168 135 133 157 177 164 150 149 136 116 99 74 57 43 37 40 35 17 13 13 2 351 352 354 351 351 353 350
220 224 235 243 234 218 211 211 212 214 215 212 209 210 214 220 226 229 231 232 233 234 239 242 239 237 240 242 235 223 221 225 227 225 221 218 224 232 231 218 208 206 208 210 205 192 188 195 194 183 185 197 191 179 178 184 190 194 191 179 174 171 164 158 146 126 112 101 80 64 41 31 32 27 17 18 16 356 348 354 353 347 347 347 344
221 224 229 230 223 214 213 216 217 218 217 215 214 214 213 215 221 226 231 233 233 232 235 238 238 239 241 237 227 219 221 224 227 227 222 217 218 221 215 204 201 202 202 201 199 195 196 200 197 190 194 204 205 198 199 207 209 201 193 190 183 172 171 176 165 133 133 151 24 21 20 18 17 8 1 7 9 359 353 352 349 345 343 340 336
224 226 226 222 217 212 212 215 217 220 220 217 213 213 212 210 212 218 228 235 236 235 236 235 232 233 237 233 223 217 219 222 224 224 220 213 210 208 201 198 199 198 194 194 198 200 201 201 200 197 198 203 208 209 209 211 211 207 201 200 195 185 182 186 190 192 198 208 254 309 321 338 349 345 340 344 351 350 344 340 340 342 342 336 329
222 222 221 219 217 214 212 213 215 218 219 217 213 213 217 218 214 213 223 233 237 237 237 233 226 225 231 233 226 219 218 221 223 222 214 206 203 200 194 193 195 194 192 194 200 204 203 201 201 204 206 208 211 211 209 209 209 206 203 203 203 201 203 205 209 219 228 231 245 270 286 301 311 307 307 317 329 329 321 318 322 325 326 327 324
220 218 218 218 218 217 215 216 218 217 216 215 213 214 220 224 221 218 223 230 235 237 238 234 226 221 224 230 228 222 219 220 220 215 206 199 198 196 192 191 194 196 196 199 204 207 203 199 201 205 208 209 210 208 207 210 212 205 199 199 201 202 209 219 224 234 252 261 263 272 284 291 295 301 309 317 319 309 306 307 307 304 304 307 309
221 219 218 217 218 219 216 215 217 217 214 213 213 213 216 220 222 224 228 230 231 232 234 233 229 223 221 222 223 220 218 218 217 211 202 197 196 195 193 193 196 197 198 201 204 204 201 198 198 200 201 203 204 204 201 202 207 205 199 202 205 205 214 232 244 249 261 271 275 279 282 288 294 299 304 308 307 301 300 301 299 296 296 296 295
227 223 219 218 219 219 216 216 219 219 216 213 214 217 218 217 216 219 226 231 232 231 230 230 230 228 224 223 223 219 214 211 210 208 203 199 197 198 198 198 197 197 199 201 201 200 200 198 195 194 196 197 198 196 194 194 199 202 202 209 220 226 241 267 278 273 269 271 274 275 279 285 288 287 286 289 292 294 296 295 295 296 296 292 288
228 223 220 220 220 217 215 216 218 218 215 213 215 221 225 223 220 220 221 224 229 231 230 229 230 229 226 223 221 216 210 206 204 203 202 201 201 202 203 203 201 199 199 201 199 196 195 195 192 191 194 195 194 194 196 198 200 205 213 226 239 251 266 285 298 299 292 287 282 274 272 274 276 278 282 285 286 287 287 287 289 293 294 291 288
223 219 218 219 217 215 214 214 213 211 210 210 211 218 223 226 229 232 230 225 224 227 228 227 227 227 226 221 217 213 209 206 204 201 200 202 205 205 204 205 205 201 198 199 200 197 196 196 196 195 195 196 196 196 198 200 203 211 223 236 246 252 264 283 301 308 306 299 281 263 267 272 273 273 276 280 281 281 279 276 277 282 286 287 288
219 218 218 217 215 214 214 212 209 208 209 208 207 210 217 221 225 230 234 231 224 222 224 224 222 222 221 218 215 212 208 204 202 200 200 202 205 203 201 204 205 201 197 197 200 199 198 200 201 201 202 203 203 202 202 207 213 220 231 243 252 259 269 282 292 300 301 297 283 263 265 272 274 274 275 275 273 274 276 278 281 282 281 282 283